Regional Weather Roundup
Issued by NWS State College, PA

Home | Current Version | Previous Version | Graphics & Text | Print | Product List | Glossary On
Versions: 1 2 3 4 5 6 7 8 9 10 11 12 13 14 15 16 17 18 19 20 21 22 23 24 25 26 27 28 29 30 31 32 33 34 35 36 37 38 39 40 41 42 43 44 45 46 47 48 49 50
000
ASUS41 KCTP 271510
RWRCTP

REGIONAL WEATHER ROUNDUP
NATIONAL WEATHER SERVICE STATE COLLEGE PA
1100 AM EDT FRI MAY 27 2016

Note: "fair" indicates few or no clouds below 12,000 feet with no
significant weather and/or obstructions to visibility.

* = STATION THAT DOES NOT REPORT PRECIPITATION /E.G. RAIN...SNOW...ETC/
    THUNDER OR FOG.

PAZ002>004-007>009-013>016-020>023-029>032-271600-
WESTERN PENNSYLVANIA

CITY           SKY/WX    TMP DP  RH WIND       PRES   REMARKS
ERIE           PTSUNNY   78  65  63 NW8       30.01S
MEADVILLE      MOSUNNY   74  63  68 S10       30.05F
FRANKLIN*      MOSUNNY   77  61  57 S10       30.08F
NEW CASTLE     FAIR      77  65  66 VRB6      30.06F
BEAVER COUNTY  SUNNY     75  64  69 SW5       30.06F
BUTLER*        SUNNY     75  63  64 SW8       30.11R
PITTSBURGH INT MOSUNNY   78  60  53 SW8       30.07S
PITTSBURGH     SUNNY     78  63  59 W5        30.07F
INDIANA*       SUNNY     77  64  65 SW12      30.12S
LATROBE        MOSUNNY   77  64  65 MISG      30.10S
WASHINGTON CO* SUNNY     79  64  61 SW6       30.09S
$$

PAZ004>006-010>012-017>019-024>028-033>037-041-042-045-046-049>053-271600-
CENTRAL PENNSYLVANIA

CITY           SKY/WX    TMP DP  RH WIND       PRES   REMARKS
BRADFORD       SUNNY     74  60  61 S8        30.08F
DUBOIS         MOSUNNY   75  62  64 S8        30.09S
CLEARFIELD     SUNNY     77  64  64 S7        30.09S
JOHNSTOWN      MOSUNNY   75  59  57 SW8       30.13S
ALTOONA        MOSUNNY   78  63  59 SW9       30.10F
STATE COLLEGE  MOSUNNY   77  66  69 S9        30.08F
WILLIAMSPORT   MOSUNNY   79  65  62 CALM      30.04F
SELINSGROVE    PTSUNNY   82  66  58 CALM      30.06F
FT INDIANTOWN  MOSUNNY   81  68  64 S5        30.07R
CAPITAL CITY   SUNNY     83  66  56 VRB5      30.07S
HARRISBURG     PTSUNNY   82  66  58 W5        30.06S
YORK           SUNNY     81  67  62 VRB6      30.08R
$$

PAZ038>040-043-044-047-048-054-055-060>062-067>071-271600-
EASTERN PENNSYLVANIA

CITY           SKY/WX    TMP DP  RH WIND       PRES   REMARKS
SCRANTON       SUNNY     80  65  59 W7        30.07S
MOUNT POCONO   SUNNY     74  60  61 SW7       30.11R
ALLENTOWN      SUNNY     81  68  64 CALM      30.06S
QUAKERTOWN*    SUNNY     81  66  61 S3        30.08S
READING        SUNNY     82  67  60 W5        30.06R
LANCASTER      SUNNY     81  67  62 W5        30.07R
COATESVILLE    SUNNY     81  66  61 SW6       30.10R
POTTSTOWN      SUNNY     81  66  60 SW6       30.08S
BLUE BELL      SUNNY     81  68  65 S6        30.06S
DOYLESTOWN     SUNNY     79  64  60 SW5       30.06S
WILLOW GROVE   NOT AVBL
NORTH PHILA    SUNNY     83  68  60 S7        30.07F
PHILADELPHIA   MOSUNNY   82  65  56 W12       30.07R
$$



USA.gov is the U.S. government's official web portal to all federal, state and local government web resources and services.